Location: Atlantic Beach
(40.5890°N, 73.7290°W)
Time: 08:39:35
(UTC+00:00)

Envisat - Pass Details

Date: 25 January 2021
Orbit: 764 x 766 km, 98.1° (Epoch: 24 February)

Event Time Altitude Azimuth Distance (km) Brightness Sun altitude
Rises 09:36:33 0° 28° (NNE) 3,239 6.6 -29.2°
Reaches altitude 10° 09:39:26 10° 45° (NE) 2,307 6.0 -28.6°
Maximum altitude 09:43:12 21° 93° (E) 1,684 5.5 -27.9°
Drops below altitude 10° 09:46:56 10° 141° (SE) 2,294 5.9 -27.2°
Sets 09:49:47 0° 157° (SSE) 3,215 6.5 -26.7°
